FW3892 Canton MA US current weather conditions

sailwx.info

Wind from 212

Air temperature 19.4° C
Dewpoint 17.9° C

Last reported at 2020-Jul-05 03:00 UTC.
Time now 2020-Jul-05 04:04 UTC

Location: N 42°12' W 071°08'.
View on Google Maps.

See reports from other nearby stations

  
Tides and Currents Weather Stations Pressure Air Temp Water Temp Dewpoint Dewpoint Depression Visibility Wind Speed Wind Dir Waves Ship Positions
date/time (UTC)wind fromknots sea level pressurealtimeterstation pressurevisibilityair tempwater tempwave heightnotes
2020-Jul-05 03:00 212 19.4
2020-Jul-05 02:45 212 19.4
2020-Jul-05 02:31 225 19.4
2020-Jul-05 02:15 225 20.0
2020-Jul-05 02:00 225 20.0
2020-Jul-05 01:46 225 20.6
2020-Jul-05 01:30 241 20.6
2020-Jul-05 01:00 241 21.7
2020-Jul-05 00:45 241 22.2
2020-Jul-05 00:30 241 22.2
2020-Jul-05 00:15 241 22.8
2020-Jul-05 00:01 241 23.3
2020-Jul-04 23:46 241 23.3
2020-Jul-04 23:31 241 23.9
2020-Jul-04 23:16 241 24.4
2020-Jul-04 23:01 241 24.4
2020-Jul-04 22:45 241 25.0
2020-Jul-04 22:31 241 25.0
2020-Jul-04 22:16 241 25.0
2020-Jul-04 22:02 241 25.6
2020-Jul-04 21:46 241 25.6
2020-Jul-04 21:31 241 25.6
2020-Jul-04 21:16 241 26.1
2020-Jul-04 21:01 241 26.1
2020-Jul-04 20:46 218 26.1
2020-Jul-04 20:31 168 26.1
2020-Jul-04 20:16 146 26.7
2020-Jul-04 20:01 146 27.2
2020-Jul-04 19:46 146 28.9
2020-Jul-04 19:30 256 29.4
2020-Jul-04 19:15 262 29.4
2020-Jul-04 19:01 272 29.4
2020-Jul-04 18:45 152 28.9
2020-Jul-04 18:32 098 29.4
2020-Jul-04 18:17 098 29.4
2020-Jul-04 18:00 093 28.3
2020-Jul-04 17:46 263 27.8
2020-Jul-04 17:30 172 28.3
2020-Jul-04 17:16 141 26.1
2020-Jul-04 17:00 127 26.7
2020-Jul-04 16:45 199 26.7
2020-Jul-04 16:30 199 26.7
2020-Jul-04 16:16 169 25.6
2020-Jul-04 16:00 123 25.6
2020-Jul-04 15:45 124 25.0
2020-Jul-04 15:30 124 23.3
2020-Jul-04 15:15 110 22.2
2020-Jul-04 15:00 031 21.1
2020-Jul-04 14:45 031 21.1
2020-Jul-04 14:30 034 20.0
2020-Jul-04 14:17 034 18.9
2020-Jul-04 14:01 034 18.9
2020-Jul-04 13:46 034 18.3
2020-Jul-04 13:31 034 17.8
2020-Jul-04 13:17 034 17.8
2020-Jul-04 13:01 034 17.2
2020-Jul-04 12:46 034 17.2
2020-Jul-04 12:30 034 17.2
2020-Jul-04 12:17 034 16.7
2020-Jul-04 12:01 034 16.7
2020-Jul-04 11:45 034 16.7
2020-Jul-04 11:31 034 16.7
2020-Jul-04 11:15 034 16.7
2020-Jul-04 11:03 034 16.1
2020-Jul-04 10:46 034 16.1
2020-Jul-04 10:31 034 16.1
2020-Jul-04 10:16 034 16.1
2020-Jul-04 10:01 034 16.1
2020-Jul-04 09:46 034 16.1
2020-Jul-04 09:31 034 16.1
2020-Jul-04 09:16 034 16.1
2020-Jul-04 09:00 034 16.1
2020-Jul-04 08:46 033 16.1
2020-Jul-04 08:31 033 16.1
2020-Jul-04 08:16 033 16.7
2020-Jul-04 08:00 033 16.1
2020-Jul-04 07:45 033 16.1
2020-Jul-04 07:30 033 16.7
2020-Jul-04 07:15 033 16.7
2020-Jul-04 07:00 033 16.7
2020-Jul-04 06:45 033 16.7
2020-Jul-04 06:31 033 16.7
2020-Jul-04 06:15 033 16.7
2020-Jul-04 06:00 033 16.7
2020-Jul-04 05:45 033 16.7
2020-Jul-04 05:30 033 16.7
2020-Jul-04 05:15 033 16.7
2020-Jul-04 05:00 033 16.7
2020-Jul-04 04:45 033 16.7
2020-Jul-04 04:31 033 16.7
2020-Jul-04 04:15 033 16.7
2020-Jul-04 04:00 035 16.7
2020-Jul-04 03:45 040 16.7
2020-Jul-04 03:30 040 16.7
2020-Jul-04 03:15 341 16.7
2020-Jul-04 03:00 308 17.2
2020-Jul-04 02:45 073 17.2
2020-Jul-04 02:30 352 17.2
2020-Jul-04 02:15 354 17.2
2020-Jul-04 02:00 277 17.2
2020-Jul-04 01:45 360 17.2
2020-Jul-04 01:30 001 17.2
2020-Jul-04 01:16 334 17.2
2020-Jul-04 01:00 329 17.2
2020-Jul-04 00:45 032 17.8
2020-Jul-04 00:30 032 17.8
2020-Jul-04 00:15 032 17.8
2020-Jul-04 00:00 031 17.8
2020-Jul-03 23:45 031 17.8
2020-Jul-03 23:31 031 17.8
2020-Jul-03 23:15 337 17.8
2020-Jul-03 23:00 338 17.8
2020-Jul-03 22:45 350 17.8
2020-Jul-03 22:30 112 18.3
2020-Jul-03 22:15 302 18.3
2020-Jul-03 22:00 263 18.9
2020-Jul-03 21:45 006 18.9
2020-Jul-03 21:30 008 18.9
2020-Jul-03 21:15 272 19.4
2020-Jul-03 21:00 340 19.4
2020-Jul-03 20:45 339 19.4
2020-Jul-03 20:30 348 19.4
2020-Jul-03 20:15 334 19.4
2020-Jul-03 20:00 031 20.0
2020-Jul-03 19:45 004 20.0
2020-Jul-03 19:30 034 20.0
2020-Jul-03 19:15 254 19.4
2020-Jul-03 19:00 038 19.4
2020-Jul-03 18:46 346 20.0
2020-Jul-03 18:31 094 20.6
2020-Jul-03 18:16 181 21.1
2020-Jul-03 18:01 028 21.1
2020-Jul-03 17:46 090 21.7
2020-Jul-03 17:32 229 21.7
2020-Jul-03 17:16 302 21.7
2020-Jul-03 17:02 282 21.7
2020-Jul-03 16:47 031 21.7
2020-Jul-03 16:31 106 21.1
2020-Jul-03 16:16 308 0 gusting 6 21.7
2020-Jul-03 16:01 318 21.1
2020-Jul-03 15:46 321 21.1
2020-Jul-03 15:31 337 21.1
2020-Jul-03 15:16 332 21.1
2020-Jul-03 15:01 342 20.6
2020-Jul-03 14:46 349 21.1
2020-Jul-03 14:31 350 20.6
2020-Jul-03 14:16 354 20.6
2020-Jul-03 14:01 356 20.0
2020-Jul-03 13:46 356 0 gusting 5 20.0
2020-Jul-03 13:31 165 20.0
2020-Jul-03 13:17 211 20.0
2020-Jul-03 13:00 272 20.0
2020-Jul-03 12:46 005 20.6
2020-Jul-03 12:30 341 21.7
2020-Jul-03 12:15 350 22.8
2020-Jul-03 12:00 121 22.8
2020-Jul-03 11:47 039 22.8
2020-Jul-03 11:31 320 22.8
2020-Jul-03 11:15 156 23.3
2020-Jul-03 11:00 024 22.8
2020-Jul-03 10:45 327 22.2
2020-Jul-03 10:30 109 22.2
2020-Jul-03 10:15 108 21.7
2020-Jul-03 10:00 108 21.7
2020-Jul-03 09:46 108 21.7
2020-Jul-03 09:30 108 21.1
2020-Jul-03 09:15 108 21.1
2020-Jul-03 09:00 108 21.1
2020-Jul-03 08:46 109 21.1
2020-Jul-03 08:30 109 21.1
2020-Jul-03 08:15 108 21.1
2020-Jul-03 08:00 108 21.7
2020-Jul-03 07:45 109 21.1
2020-Jul-03 07:30 109 21.7
2020-Jul-03 07:15 108 21.7
2020-Jul-03 07:00 108 21.1
2020-Jul-03 06:46 109 21.1
2020-Jul-03 06:30 108 21.1
2020-Jul-03 06:15 108 21.1
2020-Jul-03 06:00 108 21.1
2020-Jul-03 05:45 108 21.1
2020-Jul-03 05:31 108 21.1
2020-Jul-03 05:15 108 21.1
2020-Jul-03 05:00 108 21.1
2020-Jul-03 04:45 109 21.7
2020-Jul-03 04:30 108 21.7
2020-Jul-03 04:15 108 22.2
2020-Jul-03 04:00 108 22.2